Lake Charles Regional, LA

8:22 AM CST on January 19, 2018 (GMT -0600)
Lake Charles Regional

Weather History for KLCH - February, 2014

Change the Weather History Date:

Sunday, February 9, 2014

  Actual Average Record
Temperature  
Mean Temperature 52 °F 54 °F  
Max Temperature 61 °F 63 °F 80 °F (1965)
Min Temperature 43 °F 44 °F 17 °F (1933)
Degree Days  
Heating Degree Days 13 12  
Month to date heating degree days 150 109  
Since 1 July heating degree days 1440 1100  
Cooling Degree Days 0 0  
Month to date cooling degree days 0 0  
Year to date cooling degree days 0 10  
Growing Degree Days 4 (Base 50)    
Moisture  
Dew Point 51 °F    
Average Humidity 89    
Maximum Humidity 100    
Minimum Humidity 78    
Precipitation  
Precipitation T in 0.13 in 2.83 in (1923)
Month to date precipitation 1.00 1.17  
Year to date precipitation 3.29 6.40  
Snow  
Snow 0.00 in 0.00 in T in (1973)
Month to date snowfall T 0.0  
Since 1 July snowfall 0.1 T  
Snow Depth 0.00 in    
Sea Level Pressure  
Sea Level Pressure 30.11 in    
Wind  
Wind Speed 3 mph (SSE)    
Max Wind Speed 9 mph    
Max Gust Speed 12 mph    
Visibility 6 miles    
Events Fog , Rain    
T = Trace of Precipitation, MM = Missing Value Source: NWS Daily Summary

Daily Weather History Graph

Daily Weather History Graph

Search for Another Location

Airport or City:

Trip Planner

Search our weather history database for the weather conditions in past years. The results will help you decide how hot, cold, wet, or windy it might be!

Date:

Astronomy

Feb. 09, 2014 Rise Set
Actual Time 6:57 AM CST 5:56 PM CST
Civil Twilight 6:33 AM CST 6:21 PM CST
Nautical Twilight 6:04 AM CST 6:49 PM CST
Astronomical Twilight 5:36 AM CST 7:17 PM CST
Moon 1:44 PM CST (2/9) 2:56 AM CST (2/9)
Length of Visible Light 11h 48m
Length of Day
10h 58m
Waxing Gibbous, 77% of the Moon is Illuminated
Feb 9
Waxing Gibbous
Feb 14
Full
Feb 22
Last Quarter
Mar 1
New
Mar 8
First Quarter

Hourly Weather History & Observations

Time (CST) Temp. Dew Point Humidity Pressure Visibility Wind Dir Wind Speed Gust Speed Precip Events Conditions
12:19 AM 48.0 °F 46.0 °F 93% 30.14 in 5.0 mi Calm Calm - N/A   Mostly Cloudy
12:36 AM 46.0 °F 44.1 °F 93% 30.14 in 2.5 mi Calm Calm - N/A   Partly Cloudy
12:53 AM 45.0 °F 44.1 °F 97% 30.17 in 0.5 mi Calm Calm - N/A Fog Fog
1:33 AM 44.1 °F 43.0 °F 96% 30.14 in 0.2 mi Calm Calm - N/A Fog Fog
1:48 AM 44.6 °F 44.6 °F 100% 30.13 in 0.5 mi Calm Calm - N/A Fog Fog
1:53 AM 45.0 °F 45.0 °F 100% 30.16 in 0.5 mi Calm Calm - N/A Fog Fog
1:58 AM 45.0 °F 45.0 °F 100% 30.13 in 1.0 mi Calm Calm - N/A   Overcast
2:20 AM 46.9 °F 46.0 °F 97% 30.12 in 2.0 mi Calm Calm - N/A   Overcast
2:28 AM 46.9 °F 46.0 °F 97% 30.12 in 3.0 mi Calm Calm - N/A   Overcast
2:46 AM 46.9 °F 46.0 °F 97% 30.12 in 2.5 mi SE 3.5 mph - N/A   Overcast
2:53 AM 46.9 °F 46.0 °F 97% 30.14 in 1.0 mi SE 4.6 mph - N/A   Overcast
3:02 AM 46.9 °F 46.0 °F 97% 30.11 in 0.8 mi SSE 3.5 mph - N/A   Overcast
3:12 AM 46.9 °F 46.9 °F 100% 30.12 in 0.8 mi Calm Calm - N/A   Overcast
3:22 AM 46.9 °F 46.9 °F 100% 30.11 in 1.0 mi Calm Calm - N/A   Overcast
3:38 AM 46.9 °F 46.9 °F 100% 30.11 in 1.8 mi Calm Calm - N/A   Overcast
3:45 AM 48.0 °F 46.9 °F 96% 30.11 in 2.5 mi Calm Calm - N/A   Overcast
3:49 AM 48.2 °F 46.4 °F 93% 30.11 in 3.0 mi Calm Calm - N/A   Overcast
3:53 AM 48.0 °F 46.9 °F 96% 30.13 in 3.0 mi Calm Calm - N/A   Overcast
4:44 AM 48.0 °F 46.9 °F 96% 30.10 in 3.0 mi Calm Calm - N/A   Overcast
4:53 AM 48.0 °F 46.9 °F 96% 30.13 in 4.0 mi Calm Calm - N/A   Overcast
5:02 AM 48.0 °F 46.9 °F 96% 30.11 in 4.0 mi Calm Calm - N/A   Overcast
5:46 AM 48.9 °F 48.0 °F 97% 30.10 in 5.0 mi Calm Calm - N/A   Overcast
5:53 AM 48.9 °F 46.9 °F 93% 30.13 in 5.0 mi Calm Calm - N/A   Overcast
6:07 AM 48.9 °F 48.0 °F 97% 30.11 in 5.0 mi Calm Calm - N/A   Overcast
6:26 AM 50.0 °F 48.0 °F 93% 30.11 in 5.0 mi Calm Calm - N/A   Overcast
6:42 AM 50.0 °F 48.0 °F 93% 30.11 in 5.0 mi Calm Calm - N/A   Overcast
6:53 AM 50.0 °F 48.0 °F 93% 30.14 in 5.0 mi Calm Calm - N/A   Overcast
7:53 AM 50.0 °F 48.0 °F 93% 30.15 in 5.0 mi East 3.5 mph - N/A   Overcast
8:03 AM 51.1 °F 48.0 °F 89% 30.13 in 5.0 mi East 3.5 mph - N/A   Overcast
8:53 AM 53.1 °F 50.0 °F 89% 30.17 in 5.0 mi Calm Calm - N/A   Overcast
9:36 AM 54.0 °F 51.1 °F 90% 30.16 in 5.0 mi Calm Calm - N/A   Overcast
9:53 AM 55.0 °F 51.1 °F 86% 30.19 in 6.0 mi Calm Calm - N/A   Overcast
10:53 AM 55.9 °F 52.0 °F 87% 30.19 in 7.0 mi Variable 3.5 mph - N/A   Overcast
11:53 AM 57.0 °F 54.0 °F 89% 30.15 in 9.0 mi Variable 4.6 mph - N/A   Overcast
12:53 PM 59.0 °F 54.0 °F 83% 30.12 in 10.0 mi SSW 5.8 mph - N/A   Overcast
1:09 PM 59.0 °F 54.0 °F 83% 30.10 in 10.0 mi WSW 8.1 mph - N/A   Overcast
1:22 PM 59.0 °F 54.0 °F 83% 30.10 in 10.0 mi WSW 5.8 mph - N/A   Overcast
1:53 PM 59.0 °F 54.0 °F 83% 30.12 in 10.0 mi Variable 4.6 mph - N/A   Overcast
2:00 PM 59.0 °F 54.0 °F 83% 30.10 in 10.0 mi West 4.6 mph - N/A   Overcast
2:53 PM 59.0 °F 54.0 °F 83% 30.10 in 10.0 mi West 3.5 mph - N/A   Overcast
3:53 PM 60.1 °F 54.0 °F 80% 30.08 in 10.0 mi WSW 5.8 mph - N/A   Overcast
4:53 PM 59.0 °F 54.0 °F 83% 30.08 in 10.0 mi South 3.5 mph - N/A   Overcast
5:36 PM 60.1 °F 55.0 °F 83% 30.06 in 10.0 mi South 3.5 mph - N/A   Overcast
5:53 PM 59.0 °F 55.0 °F 87% 30.08 in 10.0 mi SSE 4.6 mph - N/A   Overcast
6:25 PM 57.9 °F 55.0 °F 90% 30.06 in 9.0 mi SE 3.5 mph - N/A   Overcast
6:38 PM 57.9 °F 55.9 °F 93% 30.06 in 7.0 mi SE 4.6 mph - 0.00 in Rain Light Rain
6:53 PM 57.9 °F 55.9 °F 93% 30.09 in 9.0 mi South 3.5 mph - 0.00 in   Overcast
7:00 PM 57.9 °F 55.9 °F 93% 30.07 in 9.0 mi South 4.6 mph - N/A   Overcast
7:48 PM 57.2 °F 55.4 °F 94% 30.06 in 8.0 mi SE 3.5 mph - N/A   Overcast
7:53 PM 57.9 °F 55.9 °F 93% 30.09 in 8.0 mi SE 3.5 mph - N/A   Overcast
8:36 PM 57.9 °F 55.9 °F 93% 30.07 in 8.0 mi Calm Calm - N/A   Overcast
8:53 PM 57.9 °F 55.9 °F 93% 30.10 in 8.0 mi Calm Calm - N/A   Overcast
9:53 PM 57.9 °F 55.9 °F 93% 30.10 in 8.0 mi SSE 3.5 mph - N/A   Overcast
10:42 PM 57.0 °F 55.0 °F 93% 30.06 in 7.0 mi SE 3.5 mph - N/A   Overcast
10:53 PM 57.0 °F 55.9 °F 96% 30.09 in 7.0 mi SE 3.5 mph - N/A   Overcast
11:25 PM 57.0 °F 55.9 °F 96% 30.06 in 7.0 mi SE 4.6 mph - N/A   Overcast
11:53 PM 57.9 °F 55.9 °F 93% 30.08 in 9.0 mi SE 4.6 mph - N/A   Overcast